Time,TemperatureF,DewpointF,PressureIn,WindDirection,WindDirectionDegrees,WindSpeedMPH,WindSpeedGustMPH,Humidity,HourlyPrecipIn,Conditions,Clouds,dailyrainin,SoftwareType,DateUTC
2013-03-18 00:00:00,68.0,66.5,29.81,SSE,158,5.0,5.0,95,0.00,,BKN250,0.00,VWS V12.08,2013-03-18 05:00:00,
2013-03-18 00:05:00,68.0,66.8,29.81,SSE,158,5.0,5.0,96,0.00,,BKN250,0.00,VWS V12.08,2013-03-18 05:05:00,
2013-03-18 00:10:00,68.0,66.8,29.81,SSE,158,1.0,5.0,96,0.00,,BKN250,0.00,VWS V12.08,2013-03-18 05:10:00,
2013-03-18 00:15:00,68.0,66.8,29.81,South,180,2.0,4.0,96,0.00,,BKN250,0.00,VWS V12.08,2013-03-18 05:15:00,
2013-03-18 00:20:00,68.0,66.8,29.81,SSE,158,4.0,4.0,96,0.00,,BKN250,0.00,VWS V12.08,2013-03-18 05:20:00,
2013-03-18 00:25:00,68.0,67.1,29.81,SSE,158,4.0,4.0,97,0.00,,BKN250,0.00,VWS V12.08,2013-03-18 05:25:00,
2013-03-18 00:30:00,68.0,67.1,29.80,ESE,112,2.0,2.0,97,0.00,,BKN250,0.00,VWS V12.08,2013-03-18 05:30:00,
2013-03-18 00:35:00,68.0,67.1,29.80,East,90,7.0,7.0,97,0.00,,BKN250,0.00,VWS V12.08,2013-03-18 05:35:00,
2013-03-18 00:40:00,68.0,67.4,29.81,SSE,158,1.0,3.0,98,0.00,,BKN250,0.00,VWS V12.08,2013-03-18 05:40:00,
2013-03-18 00:45:00,68.0,67.4,29.80,South,180,5.0,5.0,98,0.00,,OVC006,0.00,VWS V12.08,2013-03-18 05:45:00,
2013-03-18 00:50:00,68.0,67.4,29.80,ESE,112,6.0,9.0,98,0.00,,OVC006,0.00,VWS V12.08,2013-03-18 05:50:00,
2013-03-18 00:55:00,68.0,67.4,29.80,SE,135,3.0,6.0,98,0.00,,OVC006,0.00,VWS V12.08,2013-03-18 05:55:00,
2013-03-18 01:00:00,68.0,67.4,29.80,South,180,3.0,5.0,98,0.00,,OVC006,0.00,VWS V12.08,2013-03-18 06:00:00,
2013-03-18 01:05:00,68.0,67.4,29.80,ENE,68,6.0,6.0,98,0.00,,OVC006,0.00,VWS V12.08,2013-03-18 06:05:00,
2013-03-18 01:10:00,68.0,67.4,29.80,SE,135,4.0,6.0,98,0.00,,OVC006,0.00,VWS V12.08,2013-03-18 06:10:00,
2013-03-18 01:15:00,68.0,67.4,29.79,SSE,158,6.0,6.0,98,0.00,,OVC006,0.00,VWS V12.08,2013-03-18 06:15:00,
2013-03-18 01:20:00,68.0,67.4,29.80,SSE,158,5.0,7.0,98,0.00,,OVC006,0.00,VWS V12.08,2013-03-18 06:20:00,
2013-03-18 01:25:00,68.0,67.4,29.79,SSE,158,2.0,5.0,98,0.00,,OVC006,0.00,VWS V12.08,2013-03-18 06:25:00,
2013-03-18 01:30:00,68.0,67.4,29.79,SSE,158,5.0,6.0,98,0.00,,OVC006,0.00,VWS V12.08,2013-03-18 06:30:00,
2013-03-18 01:34:00,68.0,67.4,29.79,ESE,112,4.0,5.0,98,0.00,,OVC006,0.00,VWS V12.08,2013-03-18 06:34:00,
2013-03-18 01:39:00,68.0,67.7,29.79,South,180,7.0,7.0,99,0.00,,OVC006,0.00,VWS V12.08,2013-03-18 06:39:00,
2013-03-18 01:44:00,68.0,67.7,29.78,SE,135,5.0,7.0,99,0.00,,OVC006,0.00,VWS V12.08,2013-03-18 06:44:00,
2013-03-18 01:49:00,68.0,67.4,29.78,SE,135,5.0,6.0,98,0.00,,OVC006,0.00,VWS V12.08,2013-03-18 06:49:00,
2013-03-18 01:54:00,68.0,67.4,29.79,SSW,202,5.0,7.0,98,0.00,,OVC006,0.00,VWS V12.08,2013-03-18 06:54:00,
2013-03-18 01:59:00,68.0,67.4,29.78,East,90,5.0,5.0,98,0.00,,OVC006,0.00,VWS V12.08,2013-03-18 06:59:00,
2013-03-18 02:04:00,68.0,67.4,29.78,SSE,158,2.0,3.0,98,0.00,,OVC006,0.00,VWS V12.08,2013-03-18 07:04:00,
2013-03-18 02:09:00,68.0,67.4,29.78,South,180,3.0,6.0,98,0.00,,OVC006,0.00,VWS V12.08,2013-03-18 07:09:00,
2013-03-18 02:14:00,68.0,67.4,29.78,South,180,4.0,4.0,98,0.00,,OVC006,0.00,VWS V12.08,2013-03-18 07:14:00,
2013-03-18 02:19:00,68.0,67.4,29.78,SE,135,5.0,10.0,98,0.00,,OVC006,0.00,VWS V12.08,2013-03-18 07:19:00,
2013-03-18 02:24:00,68.0,67.4,29.78,South,180,2.0,4.0,98,0.00,,OVC006,0.00,VWS V12.08,2013-03-18 07:24:00,
2013-03-18 02:29:00,68.0,67.4,29.78,South,180,7.0,8.0,98,0.00,,OVC006,0.00,VWS V12.08,2013-03-18 07:29:00,
2013-03-18 02:34:00,68.0,67.4,29.78,ESE,112,5.0,6.0,98,0.00,,OVC006,0.00,VWS V12.08,2013-03-18 07:34:00,
2013-03-18 02:39:00,68.0,67.4,29.78,SSE,158,4.0,5.0,98,0.00,,OVC006,0.00,VWS V12.08,2013-03-18 07:39:00,
2013-03-18 02:44:00,68.0,67.4,29.78,East,90,4.0,7.0,98,0.00,,OVC006,0.00,VWS V12.08,2013-03-18 07:44:00,
2013-03-18 02:49:00,68.0,67.4,29.78,SSE,158,2.0,3.0,98,0.00,,OVC006,0.00,VWS V12.08,2013-03-18 07:49:00,
2013-03-18 02:54:00,68.0,67.4,29.78,South,180,3.0,3.0,98,0.00,,OVC006,0.00,VWS V12.08,2013-03-18 07:54:00,
2013-03-18 02:59:00,68.0,67.4,29.79,ESE,112,1.0,2.0,98,0.00,,OVC006,0.00,VWS V12.08,2013-03-18 07:59:00,
2013-03-18 03:04:00,68.0,67.4,29.79,SSE,158,3.0,3.0,98,0.00,,OVC006,0.00,VWS V12.08,2013-03-18 08:04:00,
2013-03-18 03:09:00,68.0,67.4,29.79,South,180,2.0,3.0,98,0.00,,OVC006,0.00,VWS V12.08,2013-03-18 08:09:00,
2013-03-18 03:14:00,68.0,67.1,29.79,South,180,3.0,3.0,97,0.00,,OVC006,0.00,VWS V12.08,2013-03-18 08:14:00,
2013-03-18 03:19:00,68.0,67.4,29.79,South,180,4.0,5.0,98,0.00,,OVC006,0.00,VWS V12.08,2013-03-18 08:19:00,
2013-03-18 03:24:00,68.0,67.1,29.79,South,180,5.0,5.0,97,0.00,,OVC006,0.00,VWS V12.08,2013-03-18 08:24:00,
2013-03-18 03:29:00,68.0,67.1,29.79,South,180,4.0,4.0,97,0.00,,OVC006,0.00,VWS V12.08,2013-03-18 08:29:00,
2013-03-18 03:34:00,68.0,67.1,29.79,ESE,112,2.0,2.0,97,0.00,,OVC006,0.00,VWS V12.08,2013-03-18 08:34:00,
2013-03-18 03:39:00,68.0,67.1,29.79,SSE,158,1.0,1.0,97,0.00,,OVC006,0.00,VWS V12.08,2013-03-18 08:39:00,
2013-03-18 03:44:00,68.0,67.1,29.80,SSE,158,2.0,3.0,97,0.00,,OVC020,0.00,VWS V12.08,2013-03-18 08:44:00,
2013-03-18 03:49:00,68.0,67.1,29.80,SSE,158,4.0,5.0,97,0.00,,OVC020,0.00,VWS V12.08,2013-03-18 08:49:00,
2013-03-18 03:54:00,68.0,67.1,29.80,South,180,3.0,3.0,97,0.00,,OVC020,0.00,VWS V12.08,2013-03-18 08:54:00,
2013-03-18 03:59:00,68.0,67.1,29.79,South,180,1.0,1.0,97,0.00,,OVC020,0.00,VWS V12.08,2013-03-18 08:59:00,
2013-03-18 04:04:00,68.0,67.1,29.79,SE,135,5.0,5.0,97,0.00,,OVC020,0.00,VWS V12.08,2013-03-18 09:04:00,
2013-03-18 04:09:00,68.0,67.1,29.79,SSW,202,2.0,4.0,97,0.00,,OVC020,0.00,VWS V12.08,2013-03-18 09:09:00,
2013-03-18 04:14:00,68.0,67.1,29.79,ESE,112,2.0,3.0,97,0.00,,OVC020,0.00,VWS V12.08,2013-03-18 09:14:00,
2013-03-18 04:19:00,68.0,67.1,29.79,South,180,4.0,4.0,97,0.00,,OVC020,0.00,VWS V12.08,2013-03-18 09:19:00,
2013-03-18 04:24:00,68.0,66.8,29.79,SSE,158,2.0,2.0,96,0.00,,OVC020,0.00,VWS V12.08,2013-03-18 09:24:00,
2013-03-18 04:29:00,68.0,66.8,29.79,SSE,158,0.0,0.0,96,0.00,,OVC020,0.00,VWS V12.08,2013-03-18 09:29:00,
2013-03-18 04:34:00,68.0,66.8,29.79,SSE,158,1.0,1.0,96,0.00,,OVC020,0.00,VWS V12.08,2013-03-18 09:34:00,
2013-03-18 04:39:00,68.0,66.8,29.80,SE,135,1.0,1.0,96,0.00,,OVC020,0.00,VWS V12.08,2013-03-18 09:39:00,
2013-03-18 04:44:00,68.0,66.8,29.80,South,180,1.0,1.0,96,0.00,,OVC016,0.00,VWS V12.08,2013-03-18 09:44:00,
2013-03-18 04:49:00,68.0,66.8,29.80,SSE,158,2.0,2.0,96,0.00,,OVC016,0.00,VWS V12.08,2013-03-18 09:49:00,
2013-03-18 04:54:00,68.0,66.8,29.81,South,180,1.0,1.0,96,0.00,,OVC016,0.00,VWS V12.08,2013-03-18 09:54:00,
2013-03-18 04:59:00,68.0,66.8,29.81,South,180,1.0,3.0,96,0.00,,OVC016,0.00,VWS V12.08,2013-03-18 09:59:00,
2013-03-18 05:04:00,68.0,66.8,29.81,SSW,202,3.0,3.0,96,0.00,,OVC018,0.00,VWS V12.08,2013-03-18 10:04:00,
2013-03-18 05:09:00,68.0,66.8,29.81,South,180,0.0,1.0,96,0.00,,OVC018,0.00,VWS V12.08,2013-03-18 10:09:00,
2013-03-18 05:14:00,68.0,66.5,29.82,SSE,158,1.0,3.0,95,0.00,,OVC018,0.00,VWS V12.08,2013-03-18 10:14:00,
2013-03-18 05:19:00,68.0,66.8,29.82,South,180,2.0,3.0,96,0.00,,OVC018,0.00,VWS V12.08,2013-03-18 10:19:00,
2013-03-18 05:24:00,68.0,66.5,29.82,South,180,3.0,4.0,95,0.00,,OVC018,0.00,VWS V12.08,2013-03-18 10:24:00,
2013-03-18 05:29:00,68.0,66.5,29.82,South,180,1.0,3.0,95,0.00,,OVC018,0.00,VWS V12.08,2013-03-18 10:29:00,
2013-03-18 05:34:00,69.0,67.5,29.82,South,180,1.0,1.0,95,0.00,,OVC018,0.00,VWS V12.08,2013-03-18 10:34:00,
2013-03-18 05:39:00,69.0,67.5,29.82,South,180,1.0,2.0,95,0.00,,OVC018,0.00,VWS V12.08,2013-03-18 10:39:00,
2013-03-18 05:44:00,69.0,67.5,29.83,South,180,1.0,2.0,95,0.00,,OVC008,0.00,VWS V12.08,2013-03-18 10:44:00,
2013-03-18 05:49:00,69.0,67.5,29.83,SSE,158,2.0,3.0,95,0.00,,OVC008,0.00,VWS V12.08,2013-03-18 10:49:00,
2013-03-18 05:54:00,69.0,67.5,29.83,South,180,2.0,5.0,95,0.00,,OVC008,0.00,VWS V12.08,2013-03-18 10:54:00,
2013-03-18 05:59:00,69.0,67.5,29.83,SSW,202,2.0,3.0,95,0.00,,OVC008,0.00,VWS V12.08,2013-03-18 10:59:00,
2013-03-18 06:04:00,69.0,67.5,29.83,SSE,158,1.0,3.0,95,0.00,,OVC022,0.00,VWS V12.08,2013-03-18 11:04:00,
2013-03-18 06:09:00,69.0,67.2,29.83,South,180,2.0,3.0,94,0.00,,OVC022,0.00,VWS V12.08,2013-03-18 11:09:00,
2013-03-18 06:14:00,69.0,67.2,29.83,SE,135,1.0,5.0,94,0.00,,OVC022,0.00,VWS V12.08,2013-03-18 11:14:00,
2013-03-18 06:19:00,69.0,67.2,29.83,South,180,5.0,6.0,94,0.00,,OVC022,0.00,VWS V12.08,2013-03-18 11:19:00,
2013-03-18 06:24:00,69.0,67.2,29.83,SSE,158,1.0,3.0,94,0.00,,OVC022,0.00,VWS V12.08,2013-03-18 11:24:00,
2013-03-18 06:29:00,69.0,67.2,29.83,ESE,112,2.0,3.0,94,0.00,,OVC022,0.00,VWS V12.08,2013-03-18 11:29:00,
2013-03-18 06:34:00,69.0,67.2,29.83,SSE,158,3.0,5.0,94,0.00,,OVC022,0.00,VWS V12.08,2013-03-18 11:34:00,
2013-03-18 06:39:00,69.0,67.5,29.83,ESE,112,3.0,3.0,95,0.00,,OVC022,0.00,VWS V12.08,2013-03-18 11:39:00,
2013-03-18 06:44:00,69.0,67.5,29.83,SE,135,3.0,5.0,95,0.00,,OVC024,0.00,VWS V12.08,2013-03-18 11:44:00,
2013-03-18 06:49:00,69.0,67.2,29.83,SE,135,2.0,3.0,94,0.00,,OVC024,0.00,VWS V12.08,2013-03-18 11:49:00,
2013-03-18 06:54:00,69.0,67.2,29.83,ENE,68,3.0,3.0,94,0.00,,OVC024,0.00,VWS V12.08,2013-03-18 11:54:00,
2013-03-18 06:59:00,69.0,67.5,29.83,South,180,0.0,3.0,95,0.00,,OVC024,0.00,VWS V12.08,2013-03-18 11:59:00,
2013-03-18 07:04:00,69.0,67.5,29.84,South,180,1.0,2.0,95,0.00,,OVC024,0.00,VWS V12.08,2013-03-18 12:04:00,
2013-03-18 07:09:00,69.0,67.2,29.84,SSE,158,0.0,1.0,94,0.00,,OVC024,0.00,VWS V12.08,2013-03-18 12:09:00,
2013-03-18 07:14:00,69.0,67.2,29.84,SE,135,3.0,5.0,94,0.00,,OVC024,0.00,VWS V12.08,2013-03-18 12:14:00,
2013-03-18 07:19:00,69.0,67.2,29.84,South,180,1.0,5.0,94,0.00,,OVC024,0.00,VWS V12.08,2013-03-18 12:19:00,
2013-03-18 07:24:00,69.0,67.2,29.84,ESE,112,2.0,3.0,94,0.00,,OVC024,0.00,VWS V12.08,2013-03-18 12:24:00,
2013-03-18 07:29:00,69.0,67.2,29.83,ESE,112,5.0,6.0,94,0.00,,OVC024,0.00,VWS V12.08,2013-03-18 12:29:00,
2013-03-18 07:34:00,69.0,67.2,29.84,SE,135,2.0,3.0,94,0.00,,OVC024,0.00,VWS V12.08,2013-03-18 12:34:00,
2013-03-18 07:39:00,69.0,67.5,29.84,ESE,112,2.0,3.0,95,0.00,,OVC024,0.00,VWS V12.08,2013-03-18 12:39:00,
2013-03-18 07:44:00,69.0,67.5,29.84,SE,135,1.0,5.0,95,0.00,,OVC024,0.00,VWS V12.08,2013-03-18 12:44:00,
2013-03-18 07:49:00,69.0,67.2,29.84,SE,135,2.0,3.0,94,0.00,,OVC024,0.00,VWS V12.08,2013-03-18 12:49:00,
2013-03-18 07:54:00,69.0,67.2,29.84,SE,135,1.0,2.0,94,0.00,,OVC024,0.00,VWS V12.08,2013-03-18 12:54:00,
2013-03-18 07:59:00,69.0,67.5,29.84,SSE,158,1.0,5.0,95,0.00,,OVC024,0.00,VWS V12.08,2013-03-18 12:59:00,
2013-03-18 08:04:00,69.0,67.5,29.84,ESE,112,5.0,5.0,95,0.00,,OVC024,0.00,VWS V12.08,2013-03-18 13:04:00,
2013-03-18 08:09:00,69.0,67.5,29.84,SE,135,1.0,3.0,95,0.00,,OVC024,0.00,VWS V12.08,2013-03-18 13:09:00,
2013-03-18 08:14:00,69.0,67.8,29.84,ESE,112,2.0,5.0,96,0.00,,OVC024,0.00,VWS V12.08,2013-03-18 13:14:00,
2013-03-18 08:19:00,69.0,67.8,29.85,SSE,158,2.0,5.0,96,0.00,,OVC024,0.00,VWS V12.08,2013-03-18 13:19:00,
2013-03-18 08:24:00,69.0,67.8,29.85,ESE,112,4.0,5.0,96,0.00,,OVC026,0.00,VWS V12.08,2013-03-18 13:24:00,
2013-03-18 08:29:00,69.0,67.8,29.85,SE,135,2.0,3.0,96,0.00,,OVC026,0.00,VWS V12.08,2013-03-18 13:29:00,
2013-03-18 08:34:00,69.0,67.8,29.85,SSE,158,3.0,5.0,96,0.00,,OVC026,0.00,VWS V12.08,2013-03-18 13:34:00,
2013-03-18 08:39:00,69.0,67.8,29.85,South,180,3.0,6.0,96,0.00,,OVC026,0.00,VWS V12.08,2013-03-18 13:39:00,
2013-03-18 08:44:00,69.0,67.8,29.86,South,180,6.0,8.0,96,0.00,,,0.00,VWS V12.08,2013-03-18 13:44:00,
2013-03-18 08:49:00,69.0,67.8,29.86,SE,135,3.0,5.0,96,0.00,,,0.00,VWS V12.08,2013-03-18 13:49:00,
2013-03-18 08:54:00,69.0,67.8,29.86,East,90,3.0,6.0,96,0.00,,,0.00,VWS V12.08,2013-03-18 13:54:00,
2013-03-18 08:59:00,69.0,67.5,29.86,South,180,6.0,6.0,95,0.00,,,0.00,VWS V12.08,2013-03-18 13:59:00,
2013-03-18 09:04:00,69.0,67.5,29.86,SSW,202,3.0,6.0,95,0.00,,,0.00,VWS V12.08,2013-03-18 14:04:00,
2013-03-18 09:09:00,69.0,67.2,29.86,South,180,3.0,8.0,94,0.00,,,0.00,VWS V12.08,2013-03-18 14:09:00,
2013-03-18 09:14:00,69.0,67.2,29.86,South,180,3.0,5.0,94,0.00,,,0.00,VWS V12.08,2013-03-18 14:14:00,
2013-03-18 09:19:00,70.0,67.9,29.86,SSE,158,6.0,8.0,93,0.00,,,0.00,VWS V12.08,2013-03-18 14:19:00,
2013-03-18 09:24:00,70.0,67.3,29.86,SSW,202,8.0,8.0,91,0.00,,,0.00,VWS V12.08,2013-03-18 14:24:00,
2013-03-18 09:29:00,70.0,66.6,29.86,South,180,3.0,4.0,89,0.00,,,0.00,VWS V12.08,2013-03-18 14:29:00,
2013-03-18 09:34:00,70.0,66.6,29.86,South,180,3.0,5.0,89,0.00,,,0.00,VWS V12.08,2013-03-18 14:34:00,
2013-03-18 09:39:00,71.0,67.6,29.86,SE,135,2.0,4.0,89,0.00,,,0.00,VWS V12.08,2013-03-18 14:39:00,
2013-03-18 09:44:00,71.0,66.9,29.86,SSE,158,4.0,11.0,87,0.00,,,0.00,VWS V12.08,2013-03-18 14:44:00,
2013-03-18 09:49:00,71.0,66.9,29.86,SSW,202,10.0,10.0,87,0.00,,,0.00,VWS V12.08,2013-03-18 14:49:00,
2013-03-18 09:54:00,71.0,66.6,29.86,SSW,202,6.0,8.0,86,0.00,,,0.00,VWS V12.08,2013-03-18 14:54:00,
2013-03-18 09:59:00,72.0,67.6,29.87,South,180,5.0,7.0,86,0.00,,,0.00,VWS V12.08,2013-03-18 14:59:00,
2013-03-18 10:04:00,72.0,67.6,29.86,SSE,158,5.0,7.0,86,0.00,,,0.00,VWS V12.08,2013-03-18 15:04:00,
2013-03-18 10:09:00,72.0,66.9,29.86,SW,225,8.0,8.0,84,0.00,,,0.00,VWS V12.08,2013-03-18 15:09:00,
2013-03-18 10:14:00,72.0,66.6,29.86,SSW,202,8.0,11.0,83,0.00,,,0.00,VWS V12.08,2013-03-18 15:14:00,
2013-03-18 10:19:00,72.0,66.6,29.87,SSE,158,5.0,6.0,83,0.00,,,0.00,VWS V12.08,2013-03-18 15:19:00,
2013-03-18 10:24:00,72.0,66.6,29.87,ESE,112,5.0,7.0,83,0.00,,,0.00,VWS V12.08,2013-03-18 15:24:00,
2013-03-18 10:29:00,73.0,67.5,29.87,South,180,1.0,2.0,83,0.00,,,0.00,VWS V12.08,2013-03-18 15:29:00,
2013-03-18 10:34:00,73.0,66.5,29.87,SSW,202,7.0,10.0,80,0.00,,,0.00,VWS V12.08,2013-03-18 15:34:00,
2013-03-18 10:39:00,74.0,67.1,29.87,SSE,158,4.0,5.0,79,0.00,,,0.00,VWS V12.08,2013-03-18 15:39:00,
2013-03-18 10:44:00,74.0,66.7,29.87,ESE,112,5.0,6.0,78,0.00,,OVC025,0.00,VWS V12.08,2013-03-18 15:44:00,
2013-03-18 10:49:00,74.0,66.0,29.87,SE,135,3.0,8.0,76,0.00,,OVC025,0.00,VWS V12.08,2013-03-18 15:49:00,
2013-03-18 10:54:00,75.0,66.2,29.87,East,90,6.0,9.0,74,0.00,,OVC025,0.00,VWS V12.08,2013-03-18 15:54:00,
2013-03-18 10:59:00,75.0,66.6,29.87,South,180,5.0,8.0,75,0.00,,OVC025,0.00,VWS V12.08,2013-03-18 15:59:00,
2013-03-18 11:04:00,75.0,66.9,29.87,SW,225,7.0,7.0,76,0.00,,OVC025,0.00,VWS V12.08,2013-03-18 16:04:00,
2013-03-18 11:09:00,75.0,67.3,29.88,SSW,202,5.0,6.0,77,0.00,,OVC025,0.00,VWS V12.08,2013-03-18 16:09:00,
2013-03-18 11:14:00,75.0,66.2,29.87,SSW,202,6.0,6.0,74,0.00,,OVC025,0.00,VWS V12.08,2013-03-18 16:14:00,
2013-03-18 11:19:00,75.0,66.6,29.87,South,180,3.0,3.0,75,0.00,,OVC025,0.00,VWS V12.08,2013-03-18 16:19:00,
2013-03-18 11:24:00,76.0,66.7,29.87,SSW,202,5.0,6.0,73,0.00,,OVC025,0.00,VWS V12.08,2013-03-18 16:24:00,
2013-03-18 11:29:00,77.0,66.5,29.87,SE,135,7.0,7.0,70,0.00,,OVC025,0.00,VWS V12.08,2013-03-18 16:29:00,
2013-03-18 11:34:00,78.0,65.7,29.87,South,180,6.0,10.0,66,0.00,,OVC025,0.00,VWS V12.08,2013-03-18 16:34:00,
2013-03-18 11:39:00,78.0,65.7,29.86,SE,135,5.0,8.0,66,0.00,,OVC025,0.00,VWS V12.08,2013-03-18 16:39:00,
2013-03-18 11:44:00,79.0,66.2,29.86,SE,135,5.0,7.0,65,0.00,,BKN020,0.00,VWS V12.08,2013-03-18 16:44:00,
2013-03-18 11:49:00,80.0,66.3,29.86,SW,225,5.0,7.0,63,0.00,,BKN020,0.00,VWS V12.08,2013-03-18 16:49:00,
2013-03-18 11:54:00,80.0,65.8,29.86,South,180,4.0,6.0,62,0.00,,BKN020,0.00,VWS V12.08,2013-03-18 16:54:00,
2013-03-18 11:59:00,81.0,66.3,29.86,SE,135,5.0,9.0,61,0.00,,BKN020,0.00,VWS V12.08,2013-03-18 16:59:00,
2013-03-18 12:04:00,81.0,66.3,29.86,SSE,158,10.0,11.0,61,0.00,,SCT022,0.00,VWS V12.08,2013-03-18 17:04:00,
2013-03-18 12:09:00,81.0,65.8,29.86,ESE,112,6.0,10.0,60,0.00,,SCT022,0.00,VWS V12.08,2013-03-18 17:09:00,
2013-03-18 12:14:00,80.0,65.4,29.86,ESE,112,5.0,5.0,61,0.00,,SCT022,0.00,VWS V12.08,2013-03-18 17:14:00,
2013-03-18 12:19:00,81.0,66.3,29.86,SSW,202,8.0,8.0,61,0.00,,SCT022,0.00,VWS V12.08,2013-03-18 17:19:00,
2013-03-18 12:24:00,81.0,65.8,29.86,SE,135,5.0,9.0,60,0.00,,SCT022,0.00,VWS V12.08,2013-03-18 17:24:00,
2013-03-18 12:29:00,81.0,65.3,29.85,SSE,158,5.0,6.0,59,0.00,,SCT022,0.00,VWS V12.08,2013-03-18 17:29:00,
2013-03-18 12:34:00,81.0,65.8,29.85,SSE,158,3.0,3.0,60,0.00,,SCT022,0.00,VWS V12.08,2013-03-18 17:34:00,
2013-03-18 12:39:00,82.0,65.8,29.85,SSE,158,6.0,6.0,58,0.00,,SCT022,0.00,VWS V12.08,2013-03-18 17:39:00,
2013-03-18 12:44:00,82.0,65.8,29.85,SSE,158,3.0,6.0,58,0.00,,SCT022,0.00,VWS V12.08,2013-03-18 17:44:00,
2013-03-18 12:49:00,82.0,66.3,29.85,SE,135,8.0,8.0,59,0.00,,SCT022,0.00,VWS V12.08,2013-03-18 17:49:00,
2013-03-18 12:54:00,82.0,65.8,29.85,ESE,112,3.0,5.0,58,0.00,,SCT022,0.00,VWS V12.08,2013-03-18 17:54:00,
2013-03-18 12:59:00,82.0,66.3,29.84,SE,135,3.0,3.0,59,0.00,,SCT022,0.00,VWS V12.08,2013-03-18 17:59:00,
2013-03-18 13:04:00,82.0,65.8,29.84,SE,135,5.0,6.0,58,0.00,,SCT022,0.00,VWS V12.08,2013-03-18 18:04:00,
2013-03-18 13:09:00,82.0,65.8,29.84,South,180,4.0,5.0,58,0.00,,SCT022,0.00,VWS V12.08,2013-03-18 18:09:00,
2013-03-18 13:14:00,82.0,65.3,29.84,SSE,158,3.0,3.0,57,0.00,,SCT022,0.00,VWS V12.08,2013-03-18 18:14:00,
2013-03-18 13:19:00,83.0,66.2,29.84,ESE,112,8.0,9.0,57,0.00,,SCT022,0.00,VWS V12.08,2013-03-18 18:19:00,
2013-03-18 13:24:00,82.0,65.3,29.84,South,180,5.0,5.0,57,0.00,,SCT022,0.00,VWS V12.08,2013-03-18 18:24:00,
2013-03-18 13:28:00,83.0,65.7,29.84,SE,135,2.0,2.0,56,0.00,,SCT022,0.00,VWS V12.08,2013-03-18 18:28:00,
2013-03-18 13:33:00,83.0,65.7,29.84,West,270,2.0,3.0,56,0.00,,SCT022,0.00,VWS V12.08,2013-03-18 18:33:00,
2013-03-18 13:38:00,83.0,65.7,29.84,SSW,202,3.0,6.0,56,0.00,,SCT022,0.00,VWS V12.08,2013-03-18 18:38:00,
2013-03-18 13:43:00,83.0,63.6,29.84,ESE,112,6.0,6.0,52,0.00,,CLR,0.00,VWS V12.08,2013-03-18 18:43:00,
2013-03-18 13:48:00,83.0,64.1,29.83,SSE,158,3.0,5.0,53,0.00,,CLR,0.00,VWS V12.08,2013-03-18 18:48:00,
2013-03-18 13:53:00,83.0,64.7,29.83,SE,135,3.0,4.0,54,0.00,,CLR,0.00,VWS V12.08,2013-03-18 18:53:00,
2013-03-18 13:58:00,83.0,64.7,29.83,East,90,2.0,2.0,54,0.00,,CLR,0.00,VWS V12.08,2013-03-18 18:58:00,
2013-03-18 14:03:00,83.0,64.1,29.83,ESE,112,6.0,6.0,53,0.00,,CLR,0.00,VWS V12.08,2013-03-18 19:03:00,
2013-03-18 14:08:00,83.0,65.2,29.83,SSW,202,6.0,7.0,55,0.00,,CLR,0.00,VWS V12.08,2013-03-18 19:08:00,
2013-03-18 14:13:00,84.0,65.1,29.82,NW,315,2.0,2.0,53,0.00,,CLR,0.00,VWS V12.08,2013-03-18 19:13:00,
2013-03-18 14:18:00,84.0,64.5,29.82,ENE,68,3.0,4.0,52,0.00,,CLR,0.00,VWS V12.08,2013-03-18 19:18:00,
2013-03-18 14:23:00,84.0,63.9,29.82,South,180,5.0,5.0,51,0.00,,CLR,0.00,VWS V12.08,2013-03-18 19:23:00,
2013-03-18 14:28:00,84.0,59.8,29.82,ESE,112,3.0,5.0,44,0.00,,CLR,0.00,VWS V12.08,2013-03-18 19:28:00,
2013-03-18 14:33:00,85.0,63.7,29.82,WSW,248,4.0,5.0,49,0.00,,CLR,0.00,VWS V12.08,2013-03-18 19:33:00,
2013-03-18 14:38:00,85.0,63.1,29.81,SSW,202,5.0,6.0,48,0.00,,CLR,0.00,VWS V12.08,2013-03-18 19:38:00,
2013-03-18 14:43:00,85.0,60.7,29.81,South,180,6.0,6.0,44,0.00,,CLR,0.00,VWS V12.08,2013-03-18 19:43:00,
2013-03-18 14:48:00,86.0,62.2,29.81,West,270,5.0,5.0,45,0.00,,CLR,0.00,VWS V12.08,2013-03-18 19:48:00,
2013-03-18 14:53:00,85.0,61.9,29.81,SSW,202,3.0,3.0,46,0.00,,CLR,0.00,VWS V12.08,2013-03-18 19:53:00,
2013-03-18 14:58:00,85.0,61.9,29.81,South,180,1.0,1.0,46,0.00,,CLR,0.00,VWS V12.08,2013-03-18 19:58:00,
2013-03-18 15:03:00,85.0,62.5,29.81,South,180,3.0,4.0,47,0.00,,CLR,0.00,VWS V12.08,2013-03-18 20:03:00,
2013-03-18 15:08:00,85.0,61.3,29.80,South,180,4.0,5.0,45,0.00,,CLR,0.00,VWS V12.08,2013-03-18 20:08:00,
2013-03-18 15:13:00,86.0,63.4,29.80,WSW,248,6.0,6.0,47,0.00,,CLR,0.00,VWS V12.08,2013-03-18 20:13:00,
2013-03-18 15:18:00,86.0,63.4,29.80,SW,225,4.0,6.0,47,0.00,,CLR,0.00,VWS V12.08,2013-03-18 20:18:00,
2013-03-18 15:23:00,86.0,62.8,29.80,SSW,202,3.0,7.0,46,0.00,,CLR,0.00,VWS V12.08,2013-03-18 20:23:00,
2013-03-18 15:28:00,86.0,62.8,29.80,South,180,2.0,3.0,46,0.00,,CLR,0.00,VWS V12.08,2013-03-18 20:28:00,
2013-03-18 15:33:00,87.0,63.7,29.80,SW,225,6.0,7.0,46,0.00,,CLR,0.00,VWS V12.08,2013-03-18 20:33:00,
2013-03-18 15:38:00,87.0,62.5,29.80,SSW,202,5.0,6.0,44,0.00,,CLR,0.00,VWS V12.08,2013-03-18 20:38:00,
2013-03-18 15:43:00,87.0,60.5,29.80,SE,135,2.0,5.0,41,0.00,,CLR,0.00,VWS V12.08,2013-03-18 20:43:00,
2013-03-18 15:48:00,87.0,61.2,29.80,West,270,4.0,6.0,42,0.00,,CLR,0.00,VWS V12.08,2013-03-18 20:48:00,
2013-03-18 15:53:00,87.0,61.2,29.80,SW,225,6.0,8.0,42,0.00,,CLR,0.00,VWS V12.08,2013-03-18 20:53:00,
2013-03-18 15:58:00,87.0,60.5,29.80,West,270,3.0,5.0,41,0.00,,CLR,0.00,VWS V12.08,2013-03-18 20:58:00,
2013-03-18 16:03:00,87.0,60.5,29.80,SSW,202,3.0,7.0,41,0.00,,CLR,0.00,VWS V12.08,2013-03-18 21:03:00,
2013-03-18 16:08:00,87.0,59.8,29.80,SSW,202,5.0,7.0,40,0.00,,CLR,0.00,VWS V12.08,2013-03-18 21:08:00,
2013-03-18 16:13:00,87.0,61.2,29.80,WNW,292,3.0,5.0,42,0.00,,CLR,0.00,VWS V12.08,2013-03-18 21:13:00,
2013-03-18 16:18:00,87.0,60.5,29.80,NNE,22,3.0,5.0,41,0.00,,CLR,0.00,VWS V12.08,2013-03-18 21:18:00,
2013-03-18 16:23:00,87.0,61.2,29.80,South,180,1.0,3.0,42,0.00,,CLR,0.00,VWS V12.08,2013-03-18 21:23:00,
2013-03-18 16:28:00,87.0,61.2,29.80,WSW,248,5.0,7.0,42,0.00,,CLR,0.00,VWS V12.08,2013-03-18 21:28:00,
2013-03-18 16:33:00,87.0,61.8,29.80,South,180,1.0,1.0,43,0.00,,CLR,0.00,VWS V12.08,2013-03-18 21:33:00,
2013-03-18 16:38:00,87.0,61.2,29.79,West,270,5.0,5.0,42,0.00,,CLR,0.00,VWS V12.08,2013-03-18 21:38:00,
2013-03-18 16:43:00,87.0,61.8,29.79,South,180,1.0,3.0,43,0.00,,CLR,0.00,VWS V12.08,2013-03-18 21:43:00,
2013-03-18 16:48:00,87.0,61.8,29.79,SE,135,1.0,3.0,43,0.00,,CLR,0.00,VWS V12.08,2013-03-18 21:48:00,
2013-03-18 16:53:00,87.0,60.5,29.79,SSE,158,3.0,5.0,41,0.00,,CLR,0.00,VWS V12.08,2013-03-18 21:53:00,
2013-03-18 16:58:00,87.0,60.5,29.79,ESE,112,3.0,5.0,41,0.00,,CLR,0.00,VWS V12.08,2013-03-18 21:58:00,
2013-03-18 17:03:00,87.0,61.8,29.79,South,180,2.0,3.0,43,0.00,,CLR,0.00,VWS V12.08,2013-03-18 22:03:00,
2013-03-18 17:08:00,87.0,60.5,29.80,ESE,112,5.0,5.0,41,0.00,,CLR,0.00,VWS V12.08,2013-03-18 22:08:00,
2013-03-18 17:13:00,87.0,61.2,29.80,SW,225,3.0,4.0,42,0.00,,CLR,0.00,VWS V12.08,2013-03-18 22:13:00,
2013-03-18 17:18:00,87.0,61.2,29.80,SW,225,5.0,5.0,42,0.00,,CLR,0.00,VWS V12.08,2013-03-18 22:18:00,
2013-03-18 17:23:00,87.0,60.5,29.80,SW,225,1.0,3.0,41,0.00,,CLR,0.00,VWS V12.08,2013-03-18 22:23:00,
2013-03-18 17:28:00,87.0,59.8,29.80,NW,315,3.0,3.0,40,0.00,,CLR,0.00,VWS V12.08,2013-03-18 22:28:00,
2013-03-18 17:33:00,87.0,59.8,29.80,West,270,3.0,5.0,40,0.00,,CLR,0.00,VWS V12.08,2013-03-18 22:33:00,
2013-03-18 17:38:00,87.0,60.5,29.80,SW,225,2.0,3.0,41,0.00,,CLR,0.00,VWS V12.08,2013-03-18 22:38:00,
2013-03-18 17:43:00,87.0,60.5,29.80,West,270,3.0,6.0,41,0.00,,CLR,0.00,VWS V12.08,2013-03-18 22:43:00,
2013-03-18 17:48:00,87.0,60.5,29.81,NNW,338,3.0,3.0,41,0.00,,CLR,0.00,VWS V12.08,2013-03-18 22:48:00,
2013-03-18 17:53:00,87.0,59.8,29.81,WSW,248,3.0,4.0,40,0.00,,CLR,0.00,VWS V12.08,2013-03-18 22:53:00,
2013-03-18 17:58:00,86.0,58.9,29.81,South,180,2.0,5.0,40,0.00,,CLR,0.00,VWS V12.08,2013-03-18 22:58:00,
2013-03-18 18:03:00,86.0,58.9,29.81,West,270,5.0,5.0,40,0.00,,CLR,0.00,VWS V12.08,2013-03-18 23:03:00,
2013-03-18 18:08:00,86.0,59.6,29.81,SW,225,2.0,4.0,41,0.00,,CLR,0.00,VWS V12.08,2013-03-18 23:08:00,
2013-03-18 18:13:00,86.0,59.6,29.81,SW,225,4.0,6.0,41,0.00,,CLR,0.00,VWS V12.08,2013-03-18 23:13:00,
2013-03-18 18:18:00,86.0,58.9,29.81,NNW,338,1.0,4.0,40,0.00,,CLR,0.00,VWS V12.08,2013-03-18 23:18:00,
2013-03-18 18:23:00,86.0,59.6,29.82,West,270,3.0,3.0,41,0.00,,CLR,0.00,VWS V12.08,2013-03-18 23:23:00,
2013-03-18 18:28:00,86.0,59.6,29.82,SW,225,2.0,5.0,41,0.00,,CLR,0.00,VWS V12.08,2013-03-18 23:28:00,
2013-03-18 18:33:00,86.0,59.6,29.82,NNE,22,2.0,4.0,41,0.00,,CLR,0.00,VWS V12.08,2013-03-18 23:33:00,
2013-03-18 18:38:00,86.0,59.6,29.82,North,0,3.0,4.0,41,0.00,,CLR,0.00,VWS V12.08,2013-03-18 23:38:00,
2013-03-18 18:43:00,86.0,59.6,29.82,SE,135,1.0,4.0,41,0.00,,SCT250,0.00,VWS V12.08,2013-03-18 23:43:00,
2013-03-18 18:48:00,86.0,58.9,29.83,SW,225,1.0,5.0,40,0.00,,SCT250,0.00,VWS V12.08,2013-03-18 23:48:00,
2013-03-18 18:53:00,86.0,58.9,29.83,North,0,8.0,9.0,40,0.00,,SCT250,0.00,VWS V12.08,2013-03-18 23:53:00,
2013-03-18 18:58:00,86.0,58.9,29.83,South,180,1.0,1.0,40,0.00,,SCT250,0.00,VWS V12.08,2013-03-18 23:58:00,
2013-03-18 19:03:00,86.0,59.6,29.84,NNW,338,6.0,6.0,41,0.00,,SCT250,0.00,VWS V12.08,2013-03-19 00:03:00,
2013-03-18 19:08:00,85.0,58.7,29.84,SSE,158,1.0,3.0,41,0.00,,SCT250,0.00,VWS V12.08,2013-03-19 00:08:00,
2013-03-18 19:13:00,85.0,58.7,29.85,SSW,202,1.0,3.0,41,0.00,,SCT250,0.00,VWS V12.08,2013-03-19 00:13:00,
2013-03-18 19:18:00,85.0,58.7,29.85,WNW,292,3.0,5.0,41,0.00,,SCT250,0.00,VWS V12.08,2013-03-19 00:18:00,
2013-03-18 19:23:00,85.0,58.7,29.85,NE,45,2.0,3.0,41,0.00,,SCT250,0.00,VWS V12.08,2013-03-19 00:23:00,
2013-03-18 19:28:00,84.0,65.6,29.86,ESE,112,5.0,5.0,54,0.00,,SCT250,0.00,VWS V12.08,2013-03-19 00:28:00,
2013-03-18 19:33:00,84.0,66.6,29.86,SSE,158,5.0,5.0,56,0.00,,SCT250,0.00,VWS V12.08,2013-03-19 00:33:00,
2013-03-18 19:38:00,83.0,66.7,29.86,SE,135,2.0,3.0,58,0.00,,SCT250,0.00,VWS V12.08,2013-03-19 00:38:00,
2013-03-18 19:43:00,82.0,67.2,29.86,SE,135,2.0,4.0,61,0.00,,SCT250,0.00,VWS V12.08,2013-03-19 00:43:00,
2013-03-18 19:48:00,81.0,67.2,29.87,SE,135,2.0,3.0,63,0.00,,SCT250,0.00,VWS V12.08,2013-03-19 00:48:00,
2013-03-18 19:53:00,81.0,67.7,29.87,ESE,112,8.0,8.0,64,0.00,,SCT250,0.00,VWS V12.08,2013-03-19 00:53:00,
2013-03-18 19:58:00,80.0,67.2,29.87,East,90,4.0,5.0,65,0.00,,SCT250,0.00,VWS V12.08,2013-03-19 00:58:00,
2013-03-18 20:03:00,80.0,67.6,29.88,ESE,112,3.0,3.0,66,0.00,,SCT250,0.00,VWS V12.08,2013-03-19 01:03:00,
2013-03-18 20:08:00,79.0,67.1,29.88,SE,135,4.0,6.0,67,0.00,,SCT250,0.00,VWS V12.08,2013-03-19 01:08:00,
2013-03-18 20:13:00,79.0,67.1,29.88,SE,135,2.0,3.0,67,0.00,,SCT250,0.00,VWS V12.08,2013-03-19 01:13:00,
2013-03-18 20:18:00,79.0,68.0,29.89,East,90,2.0,4.0,69,0.00,,SCT250,0.00,VWS V12.08,2013-03-19 01:18:00,
2013-03-18 20:23:00,78.0,67.4,29.89,SSW,202,2.0,4.0,70,0.00,,SCT250,0.00,VWS V12.08,2013-03-19 01:23:00,
2013-03-18 20:28:00,78.0,67.4,29.90,SE,135,3.0,5.0,70,0.00,,SCT250,0.00,VWS V12.08,2013-03-19 01:28:00,
2013-03-18 20:33:00,78.0,67.4,29.90,ESE,112,3.0,4.0,70,0.00,,SCT250,0.00,VWS V12.08,2013-03-19 01:33:00,
2013-03-18 20:38:00,78.0,67.0,29.90,ENE,68,3.0,4.0,69,0.00,,SCT250,0.00,VWS V12.08,2013-03-19 01:38:00,
2013-03-18 20:43:00,78.0,67.8,29.90,ESE,112,3.0,3.0,71,0.00,,BKN250,0.00,VWS V12.08,2013-03-19 01:43:00,
2013-03-18 20:48:00,78.0,67.8,29.90,ENE,68,3.0,3.0,71,0.00,,BKN250,0.00,VWS V12.08,2013-03-19 01:48:00,
2013-03-18 20:53:00,78.0,67.8,29.91,SSE,158,2.0,3.0,71,0.00,,BKN250,0.00,VWS V12.08,2013-03-19 01:53:00,
2013-03-18 20:58:00,77.0,67.3,29.91,SE,135,1.0,3.0,72,0.00,,BKN250,0.00,VWS V12.08,2013-03-19 01:58:00,
2013-03-18 21:03:00,77.0,67.3,29.91,SE,135,3.0,4.0,72,0.00,,BKN250,0.00,VWS V12.08,2013-03-19 02:03:00,
2013-03-18 21:08:00,77.0,67.3,29.92,NE,45,1.0,3.0,72,0.00,,BKN250,0.00,VWS V12.08,2013-03-19 02:08:00,
2013-03-18 21:13:00,77.0,67.7,29.92,ESE,112,3.0,4.0,73,0.00,,BKN250,0.00,VWS V12.08,2013-03-19 02:13:00,
2013-03-18 21:18:00,77.0,67.3,29.92,ESE,112,3.0,3.0,72,0.00,,BKN250,0.00,VWS V12.08,2013-03-19 02:18:00,
2013-03-18 21:23:00,77.0,67.7,29.92,ENE,68,3.0,4.0,73,0.00,,BKN250,0.00,VWS V12.08,2013-03-19 02:23:00,
2013-03-18 21:28:00,77.0,67.3,29.93,ENE,68,2.0,3.0,72,0.00,,BKN250,0.00,VWS V12.08,2013-03-19 02:28:00,
2013-03-18 21:33:00,77.0,68.1,29.93,ESE,112,4.0,4.0,74,0.00,,BKN250,0.00,VWS V12.08,2013-03-19 02:33:00,
2013-03-18 21:38:00,77.0,68.1,29.93,SSE,158,2.0,3.0,74,0.00,,BKN250,0.00,VWS V12.08,2013-03-19 02:38:00,
2013-03-18 21:43:00,76.0,66.7,29.93,East,90,1.0,2.0,73,0.00,,BKN250,0.00,VWS V12.08,2013-03-19 02:43:00,
2013-03-18 21:48:00,76.0,67.5,29.94,ESE,112,3.0,3.0,75,0.00,,BKN250,0.00,VWS V12.08,2013-03-19 02:48:00,
2013-03-18 21:53:00,76.0,67.1,29.94,South,180,0.0,1.0,74,0.00,,BKN250,0.00,VWS V12.08,2013-03-19 02:53:00,
2013-03-18 21:58:00,76.0,67.1,29.95,NNE,22,2.0,3.0,74,0.00,,BKN250,0.00,VWS V12.08,2013-03-19 02:58:00,
2013-03-18 22:03:00,76.0,67.1,29.95,NW,315,4.0,6.0,74,0.00,,BKN250,0.00,VWS V12.08,2013-03-19 03:03:00,
2013-03-18 22:08:00,76.0,67.1,29.96,WNW,292,3.0,3.0,74,0.00,,BKN250,0.00,VWS V12.08,2013-03-19 03:08:00,
2013-03-18 22:13:00,76.0,67.1,29.96,NNW,338,2.0,6.0,74,0.00,,BKN250,0.00,VWS V12.08,2013-03-19 03:13:00,
2013-03-18 22:18:00,76.0,67.1,29.96,NNW,338,5.0,6.0,74,0.00,,BKN250,0.00,VWS V12.08,2013-03-19 03:18:00,
2013-03-18 22:23:00,76.0,67.1,29.96,North,0,3.0,5.0,74,0.00,,BKN250,0.00,VWS V12.08,2013-03-19 03:23:00,
2013-03-18 22:28:00,76.0,66.7,29.96,North,0,3.0,3.0,73,0.00,,BKN250,0.00,VWS V12.08,2013-03-19 03:28:00,
2013-03-18 22:33:00,76.0,66.7,29.97,North,0,5.0,6.0,73,0.00,,BKN250,0.00,VWS V12.08,2013-03-19 03:33:00,
2013-03-18 22:38:00,76.0,66.7,29.97,North,0,6.0,10.0,73,0.00,,BKN250,0.00,VWS V12.08,2013-03-19 03:38:00,
2013-03-18 22:43:00,76.0,66.7,29.97,NNE,22,4.0,6.0,73,0.00,,BKN250,0.00,VWS V12.08,2013-03-19 03:43:00,
2013-03-18 22:48:00,76.0,65.5,29.97,North,0,4.0,6.0,70,0.00,,BKN250,0.00,VWS V12.08,2013-03-19 03:48:00,
2013-03-18 22:53:00,76.0,65.1,29.97,NE,45,4.0,6.0,69,0.00,,BKN250,0.00,VWS V12.08,2013-03-19 03:53:00,
2013-03-18 22:58:00,76.0,64.7,29.97,North,0,3.0,3.0,68,0.00,,BKN250,0.00,VWS V12.08,2013-03-19 03:58:00,
2013-03-18 23:00:00,76.0,64.7,29.98,NNE,22,4.0,8.0,68,0.00,,BKN250,0.00,VWS V12.08,2013-03-19 04:00:00,
2013-03-18 23:01:00,76.0,65.1,29.97,NNE,22,5.0,6.0,69,0.00,,BKN250,0.00,VWS V12.08,2013-03-19 04:01:00,
2013-03-18 23:06:00,76.0,65.5,29.98,North,0,6.0,11.0,70,0.00,,BKN250,0.00,VWS V12.08,2013-03-19 04:06:00,
2013-03-18 23:11:00,75.0,64.6,29.98,NNW,338,5.0,6.0,70,0.00,,BKN250,0.00,VWS V12.08,2013-03-19 04:11:00,
2013-03-18 23:16:00,75.0,64.6,29.98,NNE,22,8.0,11.0,70,0.00,,BKN250,0.00,VWS V12.08,2013-03-19 04:16:00,
2013-03-18 23:21:00,75.0,64.2,29.98,NNE,22,6.0,6.0,69,0.00,,BKN250,0.00,VWS V12.08,2013-03-19 04:21:00,
2013-03-18 23:26:00,75.0,62.5,29.98,North,0,5.0,5.0,65,0.00,,BKN250,0.00,VWS V12.08,2013-03-19 04:26:00,
2013-03-18 23:31:00,75.0,61.1,29.98,North,0,12.0,13.0,62,0.00,,BKN250,0.00,VWS V12.08,2013-03-19 04:31:00,
2013-03-18 23:36:00,75.0,60.7,29.98,NW,315,7.0,11.0,61,0.00,,BKN250,0.00,VWS V12.08,2013-03-19 04:36:00,
2013-03-18 23:41:00,74.0,58.8,29.98,North,0,8.0,11.0,59,0.00,,OVC240,0.00,VWS V12.08,2013-03-19 04:41:00,
2013-03-18 23:46:00,74.0,58.8,29.98,North,0,6.0,9.0,59,0.00,,OVC240,0.00,VWS V12.08,2013-03-19 04:46:00,
2013-03-18 23:51:00,74.0,59.2,29.98,NNW,338,5.0,10.0,60,0.00,,OVC240,0.00,VWS V12.08,2013-03-19 04:51:00,
2013-03-18 23:56:00,74.0,58.8,29.98,North,0,10.0,14.0,59,0.00,,OVC240,0.00,VWS V12.08,2013-03-19 04:56:00,